Regional Weather Roundup
Issued by NWS

Home | Current Version | Previous Version | Text Only | Print | Product List | Glossary On
Versions: 1 2 3 4 5 6 7 8 9 10 11 12 13 14 15 16 17 18 19 20 21 22 23 24 25 26 27 28 29 30 31 32 33 34 35 36 37 38 39 40 41 42 43 44 45 46 47 48 49 50
000
ASUS44 KLUB 270501
RWRTX
WEST TEXAS WEATHER ROUNDUP
NATIONAL WEATHER SERVICE LUBBOCK TX
1100 PM CST SUN FEB 26 2017

NOTE: "FAIR" INDICATES FEW OR NO CLOUDS BELOW 12,000 FEET WITH NO
SIGNIFICANT WEATHER AND/OR OBSTRUCTIONS TO VISIBILITY.

TXZ004-006>008-010-012-014-016-OKZ002-270600-
TEXAS PANHANDLE/OKLAHOMA PANHANDLE

CITY           SKY/WX    TMP DP  RH WIND       PRES   REMARKS
AMARILLO       PTCLDY    46  20  35 SW12      29.87S
BORGER         CLEAR     42  24  49 SE7       29.86S
CANADIAN       CLEAR     39  28  66 SE6       29.90S WCI  34
DALHART        PTCLDY    34  12  40 W9        29.85S WCI  27
DUMAS          CLEAR     44  14  29 W16       29.84R
GUYMON         CLEAR     38  18  44 SE13      29.86S WCI  30
HEREFORD       CLEAR     37  22  53 W7        29.90S WCI  32
PAMPA          CLEAR     42  31  63 SE12      29.89S
PERRYTON       PTCLDY    39  25  56 E14       29.87F WCI  31
$$

TXZ026-029-035-045-048-270600-
SOUTHERN PANHANDLE/SOUTH PLAINS/ROLLING PLAINS

CITY           SKY/WX    TMP DP  RH WIND       PRES   REMARKS
CHILDRESS      MOCLDY    47  33  58 SE8       29.89S
SEMINOLE       CLOUDY    51  20  29 N6        29.93R
LUBBOCK        PTCLDY    48  19  31 CALM      29.90R
PLAINVIEW      PTCLDY    38  20  49 CALM      29.89R
SNYDER         CLOUDY    59  28  31 N3        29.91R
$$

TXZ052-054-060>062-072-078-127-140-154-169-270600-
PERMIAN BASIN/CONCHO VALLEY/BIG COUNTRY/EDWARDS PLATEAU

CITY           SKY/WX    TMP DP  RH WIND       PRES   REMARKS
ABILENE        CLEAR     51  46  83 SE9       29.89S
BIG SPRING     CLOUDY    58  25  28 SE6       29.92R
BROWNWOOD      CLEAR     55  55 100 CALM      29.90S FOG
JUNCTION       PTCLDY    52  50  93 NE3       29.90S
MIDLAND        CLOUDY    54  26  34 CALM      29.91R
ODESSA         CLOUDY    60  19  20 CALM      29.92R
SAN ANGELO     CLOUDY    56  49  77 S10       29.89R
SONORA         MOCLDY    57  54  88 CALM      29.94S
SWEETWATER     CLEAR     58  27  30 NE6       29.93R
WINK           MOCLDY    56  23  27 E8        29.90R
$$

TXZ055-058-074-075-080-082-270600-
FAR WEST/SOUTHWEST MOUNTAINS/TRANS PECOS

CITY           SKY/WX    TMP DP  RH WIND       PRES   REMARKS
ALPINE         CLOUDY    48  15  26 SW6       30.03R
DRYDEN           N/A     59  45  59 N9        29.87R
EL PASO        PTCLDY    57  14  18 CALM      29.94R
FORT STOCKTON  PTCLDY    59  37  44 S10       29.92R
GUADALUPE PASS PTCLDY    51  18  27 W29         N/A
MARFA          CLOUDY    43  12  28 N3        30.00R
PECOS          PTCLDY    55  21  26 W6        29.92R
PRESIDIO       FAIR      65  17  16 NW6       29.91R
$$

TXZ014-016-019-021>030-083-270600
TEXAS TECH WEST TEXAS MESONET/TEXAS PANHANDLE/NORTHERN SOUTH PLAINS

CITY           SKY/WX    TMP DP  RH WIND       PRES   REMARKS
ABERNATHY 5ENE   N/A     42  23  47 SE6       29.91R
AMARILLO 9NNE    N/A     44  19  37 SW7       29.87S
AMARILLO 7SSE    N/A     41  19  41 SW8       29.89R
AMHERST 1NE      N/A     38  20  47 W9        29.91R WCI  32
CANADIAN 6E      N/A     37  26  66 E8        29.88S WCI  30
CAPROCK CYN SP   N/A     49  23  36 S9        29.90R
CHILDRESS 2NNE   N/A     45  34  66 SE9       29.88S
CLARENDON 2WSW   N/A     47  29  48 SE9       29.88R
CLAUDE 12SW      N/A     51  19  28 SW10      29.88R
DIMMITT 2NE      N/A     39  21  47 W12       29.90S WCI  32
FLOYDADA 2NNE    N/A     43  18  36 S5        29.90S
FRIONA 2NE       N/A     42  19  40 W8        29.91S
GOODLETT 3W      N/A     42  34  72 NE7       29.89R
HART 3N          N/A     38  21  50 SW6       29.91R WCI  33
HEREFORD 2NW     N/A     38  18  44 SW7       29.90R WCI  32
MEMPHIS 1NE      N/A     50  34  54 CALM      29.88S
MULESHOE 2SSW    N/A     34  20  58 W8        29.91S WCI  27
OLTON 6S         N/A     37  25  61 SW7       29.90R WCI  32
PALO DURO SP     N/A     46  20  35 W12       29.89S
PAMPA 2E         N/A     40  30  66 SE16      29.88S WCI  32
PLAINVIEW 1S     N/A     38  22  53 W1        29.90R
SILVERTON 7ESE   N/A     44  23  43 S7        29.90R
TURKEY 2WSW      N/A     51  28  40 SE8       29.89S
UMBARGER 3NNE    N/A     38  19  46 SW9       29.89S WCI  32
$$

TXZ033>036-039>041-045>048-270600
TEXAS TECH WEST TEXAS MESONET/SOUTH PLAINS

CITY           SKY/WX    TMP DP  RH WIND       PRES   REMARKS
AIKEN 3WSW       N/A     40  22  47 S6        29.91S
ANDREWS 2NE      N/A     56  23  27 S5        29.92R
ANTON 6SSW       N/A     42  18  38 S1        29.91R
BROWNFIELD 2S    N/A     49  19  30 N9        29.91R
DENVR CTY 7WNW   N/A     42  20  41 NW7       29.92R
GAIL 2ESE        N/A     66  24  20 SW10      29.88R
LAMESA 2SE       N/A     56  29  35 W5        29.91R
LEVELLAND 4S     N/A     43  18  36 NW2       29.91R
LUBBOCK 3WNW     N/A     45  20  37 CALM      29.91R
MORTON 1ENE      N/A     42  17  37 W3        29.92R
ODONNELL 1N      N/A     50  22  33 SW7       29.89R
PLAINS 3N        N/A     42  18  37 N6        29.92R
RALLS 1SE        N/A     47  18  31 N5        29.91R
REESE CENTER     N/A     49  18  29 NE2       29.91R
SEAGRAVES 1SW    N/A     45  18  34 NW6       29.92R
SEMINOLE 2NNE    N/A     50  17  27 NE2       29.91R
SLATON 2NE       N/A     49  16  26 N3        29.89S
SNYDER 3E        N/A     61  27  27 N3        29.90R
SUNDOWN 8SW      N/A     40  19  44 N6        29.91S
TAHOKA 3NNE      N/A     43  18  36 N8        29.89R
WOLFFORTH 6SSW   N/A     44  14  29 N7        29.91R
$$

TXZ031-032-036>038-042>044-270600-
TEXAS TECH WEST TEXAS MESONET/ROLLING PLAINS

CITY           SKY/WX    TMP DP  RH WIND       PRES   REMARKS
ASPERMONT 3NE    N/A     52  30  43 E2        29.89S
FLUVANNA 3WNW    N/A     65  26  22 SW23      29.87F
GRAHAM 5SSW      N/A     56  17  21 E2        29.87S
GUTHRIE 10WSW    N/A     48  28  46 NE6       29.89S
HASKELL 1NW      N/A     54  33  44 E7        29.88S
JAYTON 1SSE      N/A     50  28  41 E9        29.88S
KNOX CITY 3NW    N/A     47  36  64 N7        29.90S
LK A HENRY 1NW   N/A     58  23  26 E2        29.86S
NORTHFIELD 1S    N/A     46  33  60 S3        29.90R
ODELL 4ENE       N/A     43  35  74 E7        29.91R
PADUCAH 10SW     N/A     46  32  59 SE6       29.89S
POST 1NE         N/A     52  21  29 NW6       29.87S
RRING SPRGS 3N   N/A     48  26  42 SW3       29.91R
SEYMOUR 3NW      N/A     47  38  72 NE7       29.90S
SPUR 1W          N/A     46  25  45 N7        29.88S
WEINERT 2NNE     N/A     50  38  63 E7        29.89S
WHITE RVR 6NE    N/A     50  20  30 NE10      29.89R
$$

TXZ052-054-060>062-072-078-127-140-154-169-270600-
TEXAS TECH WEST TEXAS MESONET/PERMIAN BASIN/
CONCHO VALLEY/BIG COUNTRY/EDWARDS PLATEAU

CITY           SKY/WX    TMP DP  RH WIND       PRES   REMARKS
COYANOSA 2N      N/A     58  18  20 S3        29.90R
JUNCTION 1SSW    N/A     47  47  98 CALM      29.91S
SAN ANGELO 7NW   N/A     47  36  65 CALM      29.90R
STRLNG CT 4WSW   N/A     40  30  66 W2        29.91R
ST LAWRNCE 5SW   N/A     53  26  34 SE10      29.91R
SWEETWATR 11SW   N/A     52  31  44 NE9       29.91R
WALL 1E          N/A     58  51  77 S12       29.90R
$$

TXZ055-058-074-075-080-082-270600-
TEXAS TECH WEST TEXAS MESONET/FAR WEST/SOUTHWEST MOUNTAINS/TRANS PECOS

CITY           SKY/WX    TMP DP  RH WIND       PRES   REMARKS
PRSMN GAP BBNP   N/A     66  32  28 N15       29.88R
GUADLPE MTN NP   N/A     51  16  24 W13       29.96S
$$




USA.gov is the U.S. government's official web portal to all federal, state and local government web resources and services.